STARLINK-1179 (45085 NORAD) Tracking and Keplerian Element Data

This shows tracking and keplerian element data for the satellite.

Feedback or suggestion? Click here.




ElementValue
Catalog45085
NameSTARLINK-1179
Epoch Orbit162
Epoch Day93.91667824
Epoch Year2020
RAAN274.7481
Inclination53.0024
Eccentricity0.0001269
Argument of Perigee47.2926
Mean Anonmoly280.696
Mean Motion15.6273036
Decay Rate0.00043172
L11 45085U 20006AT 20093.91667824 .00043172 00000-0 47523-3 0 9998
L22 45085 53.0024 274.7481 0001269 47.2926 280.6960 15.62730360 1622

Live tracking and technical data element details for STARLINK-1179 (NORAD 45085). STARLINK-1179 can be tracked NOW for your location showing map with azimuth and elevation plus other details from your city location.

Track the satellite on the map from your city or location and see movement details for azimuth, elevation, latitude, longitude, range, height, and movement on the map or in text.







IsCatalogInMostPopularTable: catalog: 45085, numindb: 13
Update: records affected: 1



GetName: 45085 STARLINK-1179

Hit Count: updated at: Fri, 10 Apr 2020 19:00:20 GMT